488P/NEAT-PanSTARRS (2009)

Japanese version
Home page
Updated on September 26, 2024

---------------------------------------------------------------------

* Profile

* Orbital Elements

                    Epoch = 2009 Nov. 25.0 TT
     T = 2009 Dec.  3.57038 TT        Peri. =   1.26578
     e = 0.5487151                    Node  = 324.15829 2000.0
     q = 1.6900048 AU                 Incl. =  11.36186
       a =  3.7448732 AU   n = 0.13600297   P =   7.25 years

* Magnitudes Graph

        m1 = 17.3 + 5 log d + 10.0 log r

---------------------------------------------------------------------

The orbital elements are printed on CBET 5427.
The magnitudes graphs are made with Comet for Windows.

---------------------------------------------------------------------

Copyright(C) Seiichi Yoshida (comet@aerith.net). All rights reserved.